Terug naar catalogus

ONEWEB-0593

ActiefCommunicatiePO
NORAD 54659·PAYLOAD·🇬🇧 United Kingdom

Gelanceerd Dec 8, 2022 vanaf Cape Canaveral Space Force Station

Loading…

Volgende Passages (komende 24 uur)

TLE

VersSource: CelesTrak SupGP

Epoch: Sep 15, 2026, 01:23 UTC

1 54659C 22166T   26258.05814074 -.00004348  00000+0 -10542-1 0  2589
2 54659  87.9281 226.0867 0002267  83.4129  26.7189 13.21831139    17

Volg ONEWEB-0593 in realtime met AllMySat

Download on the App Store